This is the latest recevied weather packets stored in our database for station/object KJ4AJP. If no packets are shown the sender has not sent any weather packets the latest 10 day(s).
| Time | Temp. | Humidity | Pressure | Rain* | Wind** | Luminosity | Snow |
|---|---|---|---|---|---|---|---|
| 1777643592 | 14.44° C | 67% | 1017.4 hPa | 0 mm | - | 86 W/m² | - |
| 1777643289 | 14.44° C | 69% | 1017.3 hPa | 0 mm | - | 77 W/m² | - |
| 1777642985 | 13.89° C | 73% | 1017.5 hPa | 0 mm | - | 201 W/m² | - |
| 1777642682 | 13.89° C | 74% | 1017.4 hPa | 0 mm | - | 59 W/m² | - |
| 1777642379 | 13.89° C | 75% | 1017.4 hPa | 0 mm | - | 74 W/m² | - |
| 1777642075 | 13.89° C | 76% | 1017.3 hPa | 0 mm | - | 55 W/m² | - |
| 1777641772 | 13.33° C | 79% | 1017.2 hPa | 0 mm | - | 55 W/m² | - |
| 1777641472 | 13.33° C | 80% | 1017.2 hPa | 0 mm | - | 54 W/m² | - |
| 1777641167 | 12.78° C | 80% | 1017.2 hPa | 0 mm | - | 56 W/m² | - |
| 1777640863 | 12.78° C | 82% | 1017 hPa | 0 mm | - | 82 W/m² | - |
| 1777640561 | 12.78° C | 85% | 1017.1 hPa | 0 mm | - | 56 W/m² | - |
| 1777640257 | 12.22° C | 94% | 1017.1 hPa | 0 mm | - | 104 W/m² | - |
| 1777639953 | 11.67° C | 98% | 1016.8 hPa | 0 mm | - | 51 W/m² | - |
| 1777639651 | 11.11° C | 99% | 1016.9 hPa | 0 mm | - | 45 W/m² | - |
| 1777639349 | 11.11° C | 99% | 1016.9 hPa | 0 mm | - | 44 W/m² | - |
| 1777639044 | 10.56° C | 99% | 1016.8 hPa | 0 mm | - | 40 W/m² | - |
| 1777638741 | 10.56° C | 99% | 1016.8 hPa | 0 mm | - | 49 W/m² | - |
| 1777638437 | 10.56° C | 99% | 1017 hPa | 0 mm | - | 47 W/m² | - |
| 1777638134 | 10° C | 99% | 1017 hPa | 0 mm | - | 36 W/m² | - |
| 1777637829 | 9.44° C | 99% | 1016.7 hPa | 0 mm | - | 40 W/m² | - |
| 1777637526 | 8.89° C | 99% | 1016.7 hPa | 0 mm | - | 30 W/m² | - |
| 1777637224 | 8.89° C | 99% | 1016.7 hPa | 0 mm | - | 29 W/m² | - |
| 1777636921 | 8.89° C | 99% | 1016.8 hPa | 0 mm | - | 27 W/m² | - |
| 1777636616 | 8.33° C | 99% | 1016.4 hPa | 0 mm | - | 25 W/m² | - |
| 1777636312 | 8.33° C | 99% | 1016.6 hPa | 0 mm | - | 23 W/m² | - |
* Rain latest hour (hover to see other rain measurements)
** Current wind speed in m/s (hover to see current wind gust speed)